KM4BH Weather Reports


time (UTC)temp
F
wind
direction
speed
knots
gust
knots
rain 1hr
in
rain 24hr
in
rain mn
in
humidity
%
barometer
mb
20260504205044 78 259 1.7 5.2 0.00 0.00 0.00 33 1015.7
20260504204549 78 205 1.7 5.2 0.00 0.00 0.00 33 1015.7
20260504204043 78 271 2.6 5.2 0.00 0.00 0.00 33 1015.9
20260504203543 78 170 1.7 5.2 0.00 0.00 0.00 32 1015.8
20260504203051 78 249 1.7 5.2 0.00 0.00 0.00 33 1016.0
20260504202545 77 240 1.7 5.2 0.00 0.00 0.00 34 1016.0
20260504202044 77 223 1.7 7.8 0.00 0.00 0.00 34 1016.1
20260504201551 77 222 2.6 8.7 0.00 0.00 0.00 32 1016.1
20260504201045 77 200 3.5 8.7 0.00 0.00 0.00 34 1016.1
20260504200543 78 256 3.5 7.8 0.00 0.00 0.00 34 1016.1
20260504200054 78 261 3.5 7.8 0.00 0.00 0.00 36 1016.2
20260504195543 79 222 1.7 5.2 0.00 0.00 0.00 36 1016.2
20260504195044 78 218 0.9 5.2 0.00 0.00 0.00 38 1016.2
20260504194549 78 260 0.9 5.2 0.00 0.00 0.00 37 1016.3
20260504194047 77 211 2.6 5.2 0.00 0.00 0.00 35 1016.3
20260504193544 77 208 1.7 4.3 0.00 0.00 0.00 35 1016.4
20260504193050 77 217 1.7 7.8 0.00 0.00 0.00 34 1016.5
20260504192544 77 269 2.6 7.8 0.00 0.00 0.00 33 1016.5
20260504192043 78 236 1.7 4.3 0.00 0.00 0.00 33 1016.7
20260504191555 78 275 1.7 4.3 0.00 0.00 0.00 35 1016.9
20260504191111 78 191 0.9 2.6 0.00 0.00 0.00 35 1016.8
20260504190545 77 52 0.9 6.1 0.00 0.00 0.00 34 1016.9
20260504190106 77 197 2.6 6.1 0.00 0.00 0.00 31 1017.1
20260504185544 77 171 2.6 6.1 0.00 0.00 0.00 34 1017.2
20260504185043 76 248 0.9 7.0 0.00 0.00 0.00 38 1017.2
20260504184604 77 240 2.6 7.0 0.00 0.00 0.00 37 1017.2
20260504184045 77 253 1.7 4.3 0.00 0.00 0.00 34 1017.2
20260504183545 76 0 0.9 5.2 0.00 0.00 0.00 36 1017.3
20260504183053 76 229 3.5 5.2 0.00 0.00 0.00 33 1017.3
20260504182544 78 245 0.9 4.3 0.00 0.00 0.00 38 1017.4
20260504182044 77 12 1.7 3.5 0.00 0.00 0.00 35 1017.4
20260504181550 78 262 0.9 3.5 0.00 0.00 0.00 35 1017.4
20260504181044 77 234 0.9 3.5 0.00 0.00 0.00 41 1017.4
20260504180545 77 263 0.9 3.5 0.00 0.00 0.00 41 1017.6
20260504180051 75 150 0.9 3.5 0.00 0.00 0.00 44 1017.7
20260504175544 75 226 0.9 3.5 0.00 0.00 0.00 44 1017.8
20260504175043 75 56 0.9 5.2 0.00 0.00 0.00 39 1017.8
20260504174548 75 250 1.7 5.2 0.00 0.00 0.00 42 1017.9
20260504174043 75 269 2.6 5.2 0.00 0.00 0.00 42 1018.0
20260504173544 76 257 1.7 4.3 0.00 0.00 0.00 41 1018.0
20260504173052 75 154 0.0 5.2 0.00 0.00 0.00 43 1017.9
20260504172543 74 265 0.9 5.2 0.00 0.00 0.00 42 1018.0
20260504172044 74 263 1.7 5.2 0.00 0.00 0.00 43 1018.2
20260504171549 74 221 0.9 5.2 0.00 0.00 0.00 42 1018.2
20260504171044 73 261 2.6 5.2 0.00 0.00 0.00 44 1018.3
20260504170544 73 55 0.9 5.2 0.00 0.00 0.00 45 1018.3
20260504151048 65 229 0.9 6.1 0.00 0.00 0.00 57 1019.5
20260504150544 65 204 2.6 6.1 0.00 0.00 0.00 55 1019.6
20260504141043 61 146 0.9 3.5 0.00 0.00 0.00 63 1019.7
20260504140545 60 186 0.9 3.5 0.00 0.00 0.00 66 1019.7
20260504130544 51 0 0.0 0.9 0.00 0.00 0.00 92 1019.6
20260504110541 42 0 0.0 0.0 0.00 0.00 0.00 94 1018.9
20260504100544 43 0 0.0 0.0 0.00 0.00 0.00 94 1019.0
20260504081553 45 0 0.0 0.0 0.00 0.00 0.00 93 1018.7
20260504081047 44 0 0.0 0.0 0.00 0.00 0.00 92 1018.8
20260504080544 45 0 0.0 0.0 0.00 0.00 0.00 92 1018.8
20260504050541 48 0 0.0 0.0 0.00 0.00 0.00 85 1019.8
20260504050107 48 0 0.0 0.0 0.00 0.00 0.00 86 1019.8
20260504045542 48 0 0.0 0.0 0.00 0.00 0.00 85 1019.9
20260504045040 48 0 0.0 0.0 0.00 0.00 0.00 85 1019.9
20260504044553 48 0 0.0 0.0 0.00 0.00 0.00 85 1019.9
20260504044042 48 0 0.0 0.0 0.00 0.00 0.00 85 1019.9
20260504043542 48 0 0.0 0.0 0.00 0.00 0.00 84 1020.0
20260504043055 48 0 0.0 0.0 0.00 0.00 0.00 84 1020.0
20260504042541 49 0 0.0 0.0 0.00 0.00 0.00 83 1020.1
20260504042040 49 0 0.0 0.0 0.00 0.00 0.00 81 1020.0
20260504041551 49 0 0.0 0.0 0.00 0.00 0.00 80 1020.0
20260504041040 50 0 0.0 0.0 0.00 0.00 0.00 80 1020.0
20260504040540 50 0 0.0 0.0 0.00 0.00 0.00 80 1019.9
20260504040105 50 0 0.0 0.0 0.00 0.00 0.00 79 1020.0
20260504035546 50 0 0.0 0.0 0.00 0.00 0.00 79 1019.9
20260504035044 50 0 0.0 0.0 0.00 0.00 0.00 79 1019.9
20260504034600 50 0 0.0 0.0 0.00 0.00 0.00 77 1020.0
20260504034048 50 0 0.0 0.0 0.00 0.00 0.00 78 1020.0
20260504033545 50 0 0.0 0.0 0.00 0.00 0.00 78 1020.0
20260504033126 51 0 0.0 0.0 0.00 0.00 0.00 78 1020.1
20260504032544 51 0 0.0 0.0 0.00 0.00 0.00 78 1020.1
20260504032043 51 0 0.0 0.0 0.00 0.00 0.00 78 1020.0
20260504031558 51 0 0.0 0.0 0.00 0.00 0.00 78 1019.9
20260504031044 51 0 0.0 0.0 0.00 0.00 0.00 78 1020.0
20260504030544 51 0 0.0 0.0 0.00 0.00 0.00 77 1019.9
20260504030052 51 0 0.0 0.0 0.00 0.00 0.00 77 1019.8
20260504025544 52 0 0.0 0.0 0.00 0.00 0.00 75 1019.8
20260504025045 52 0 0.0 0.0 0.00 0.00 0.00 75 1019.8
20260504024553 52 0 0.0 0.0 0.00 0.00 0.00 75 1019.7
20260504024044 52 0 0.0 0.0 0.00 0.00 0.00 74 1019.7
20260504023544 52 0 0.0 0.0 0.00 0.00 0.00 73 1019.7
20260504023101 53 0 0.0 0.0 0.00 0.00 0.00 72 1019.7
20260504022544 53 0 0.0 0.0 0.00 0.00 0.00 70 1019.6
20260504022043 54 0 0.0 0.0 0.00 0.00 0.00 69 1019.6
20260504021552 54 0 0.0 0.0 0.00 0.00 0.00 69 1019.6
20260504021041 54 0 0.0 0.0 0.00 0.00 0.00 68 1019.5
20260504020545 54 0 0.0 0.0 0.00 0.00 0.00 67 1019.5
20260504020058 55 0 0.0 0.0 0.00 0.00 0.00 67 1019.4
20260504015545 55 0 0.0 0.0 0.00 0.00 0.00 67 1019.4
20260504015045 55 0 0.0 0.0 0.00 0.00 0.00 66 1019.3
20260504014558 55 0 0.0 0.0 0.00 0.00 0.00 64 1019.2
20260504014043 56 0 0.0 0.0 0.00 0.00 0.00 64 1019.1
20260504013544 56 0 0.0 0.0 0.00 0.00 0.00 64 1019.1
20260504013106 56 0 0.0 0.0 0.00 0.00 0.00 65 1019.0
20260504012544 57 0 0.0 0.0 0.00 0.00 0.00 64 1018.9
20260504012042 57 0 0.0 0.0 0.00 0.00 0.00 63 1018.9
20260504011551 57 0 0.0 0.0 0.00 0.00 0.00 63 1018.9
20260504011043 57 0 0.0 0.0 0.00 0.00 0.00 62 1018.8
20260504010545 58 0 0.0 0.0 0.00 0.00 0.00 61 1018.8
20260504010111 58 0 0.0 0.0 0.00 0.00 0.00 60 1018.7
20260504005545 59 0 0.0 0.0 0.00 0.00 0.00 59 1018.7
20260504005045 60 0 0.0 0.0 0.00 0.00 0.00 58 1018.6
20260504004621 60 0 0.0 0.0 0.00 0.00 0.00 58 1018.6
20260504004045 60 0 0.0 0.0 0.00 0.00 0.00 57 1018.5
20260504003544 61 0 0.0 0.0 0.00 0.00 0.00 57 1018.5
20260504003053 61 0 0.0 0.0 0.00 0.00 0.00 57 1018.3
20260504002542 62 0 0.0 0.0 0.00 0.00 0.00 55 1018.4
20260504002042 62 0 0.0 0.0 0.00 0.00 0.00 55 1018.2
20260504001549 63 0 0.0 0.0 0.00 0.00 0.00 53 1018.4
20260504001042 63 0 0.0 0.0 0.00 0.00 0.00 51 1018.2
20260504000542 64 0 0.0 0.0 0.00 0.00 0.00 51 1018.3
20260504000053 65 0 0.0 2.6 0.00 0.00 0.00 49 1018.2
20260503235542 65 0 0.0 2.6 0.00 0.00 0.00 47 1018.2
20260503235042 65 203 0.0 1.7 0.00 0.00 0.00 46 1018.2
20260503234552 66 230 0.0 1.7 0.00 0.00 0.00 47 1018.3
20260503234042 66 179 0.0 3.5 0.00 0.00 0.00 45 1018.2
20260503233543 67 0 0.0 3.5 0.00 0.00 0.00 45 1018.2
20260503233051 67 200 0.0 1.7 0.00 0.00 0.00 46 1018.2
20260503232543 67 0 0.0 1.7 0.00 0.00 0.00 44 1018.2
20260503232042 68 173 0.9 3.5 0.00 0.00 0.00 41 1018.2
20260503231549 68 229 0.0 3.5 0.00 0.00 0.00 41 1018.3
20260503231043 69 247 0.0 2.6 0.00 0.00 0.00 41 1018.3
20260503230542 69 273 0.9 2.6 0.00 0.00 0.00 42 1018.4
20260503230100 69 265 0.0 5.2 0.00 0.00 0.00 40 1018.3
20260503225542 70 180 0.9 5.2 0.00 0.00 0.00 41 1018.2
20260503225042 69 141 1.7 7.0 0.00 0.00 0.00 39 1018.2
20260503224553 69 168 2.6 7.0 0.00 0.00 0.00 40 1018.2
20260503224042 69 191 1.7 5.2 0.00 0.00 0.00 41 1018.2
20260503223539 69 209 1.7 5.2 0.00 0.00 0.00 40 1018.2
20260503223057 69 212 2.6 6.1 0.00 0.00 0.00 40 1018.2
20260503222542 69 184 1.7 6.1 0.00 0.00 0.00 39 1018.3
20260503222043 70 217 0.9 4.3 0.00 0.00 0.00 40 1018.3
20260503221551 70 0 0.9 3.5 0.00 0.00 0.00 41 1018.3
20260503221043 70 237 1.7 3.5 0.00 0.00 0.00 40 1018.4
20260503220542 70 44 0.9 2.6 0.00 0.00 0.00 40 1018.3
20260503220055 70 209 0.0 2.6 0.00 0.00 0.00 40 1018.4
20260503215542 70 221 0.9 6.1 0.00 0.00 0.00 41 1018.4
20260503215042 70 212 2.6 6.1 0.00 0.00 0.00 39 1018.4
20260503214553 70 44 2.6 5.2 0.00 0.00 0.00 39 1018.5
20260503214045 70 229 1.7 5.2 0.00 0.00 0.00 39 1018.5
20260503213542 70 196 0.9 5.2 0.00 0.00 0.00 39 1018.5
20260503213106 70 293 0.9 5.2 0.00 0.00 0.00 38 1018.6
20260503212540 70 161 1.7 5.2 0.00 0.00 0.00 40 1018.6
20260503212043 71 302 0.9 4.3 0.00 0.00 0.00 41 1018.6
20260503211548 71 12 1.7 4.3 0.00 0.00 0.00 39 1018.7
20260503211042 71 274 0.9 7.0 0.00 0.00 0.00 39 1018.6
20260503210543 71 6 0.9 7.0 0.00 0.00 0.00 36 1018.7
20260503210100 72 188 1.7 7.0 0.00 0.00 0.00 37 1018.7
20260503205543 72 0 0.0 4.3 0.00 0.00 0.00 38 1018.6